CZ-3B DEB, 40843

Orbit data source: Space-Track

CZ-3B DEB, 40843 is space debris in HEO originally from a launch on Mon, 19 Dec 2011 UTC launched from the Xichang Space Center, China (XSC). Debris objects in space refer to the collection of defunct objects orbiting the Earth. Examples of debris include non-operational satellites, rocket bodies, and fragments generated from explosions, collisions, or faulty payload assembly.

Loading next visibility...
Identifier
40843, 2011-077Y
Orbit
HEO
Country
Flag of CNCN / PRC
Related business
Manufacturer
CALT
Mission
Spacecraft
Bus & Motor
Unknown
Mass
Unknown
Launch date (UTC)
2011-12-19 (14 years ago)
Launch vehicle
Unknown
Launch site
Xichang Space Center, China (XSC)
Object type
Payload
Rocket body
Debris
Shape & HBR
Unknown shape, 0.1 m
Radar Cross Section
Medium (>0.1 m² and <1 m²)

Expand to show TLE details & history
Last TLE update: 1 day ago

TLE from 1 day ago
0 CZ-3B DEB
1 40843U 11077Y   25307.90720742  .00020085  00000-0  31799-1 0  9998
2 40843  21.7620 210.9086 7315536  59.9620 352.4354  2.18610336 89335
Epoch: 2025-11-03T21:46Z
TLE epoch observation values (Epoch: 2025-11-03T21:46:22.721Z)
Latitude
0.00009°
Longitude
-158.95702°
Altitude
2,146.282 km
Speed
8.81 km/s
True Right ascension
14h 04m 09s
True Declination
0° 00' 00"
Sunlit
Object was in daylight at epoch
Visualization orbit readout
Latitude
Unknown
Longitude
Unknown
Altitude
Unknown
Speed
Unknown
Apparent Right ascension
Unknown
Apparent Declination
Unknown
Sunlit
N/A
Visualization observer readout
Local Sidereal Time
20:44:22
Azimuth
Unknown
Elevation
Unknown
Doppler factor
Unknown
Orbital elements
Apogee altitude
37,052.924 km
Perigee altitude
355.072 km
Semi-major axis
25,082.135 km
Eccentricity
0.73155
Inclination
21.762°
RAAN
210.9086°
Arg. of periapsis
59.962°
True anomaly
299.58616°
Mean anomaly
352.4354°
Eccentric anomaly
334.17867°
Mean motion
0.54638 °/min
Orbital period
658.88 mins
BSTAR
0.031799
Loading maneuver chart data...
Computing Atmospheric mass density...
Loading historical data...
Loading historical data...
Loading historical data...
Loading historical data...
Loading historical data...
Loading historical data...
Loading historical data...

Documentation

Showing up to 5 results
|